Hourly Data Report for October 25, 2020

TORONTO INTL A
ONTARIO
Current Station Operator: NAVCAN

43°40'36.000" N
79°37'50.000" W
173.40 m
6158731
71624
YYZ

Download Data

Hourly Data (October 2020)
Hourly Data Report for October 25, 2020
TIME Temp Definition
°C
Dew Point Definition
°C
Rel Hum Definition
%
Wind Dir Definition
10's deg

Wind Spd Definition
km/h
Visibility Definition
km
Stn Press Definition
kPa
Hmdx Definition


Wind Chill Definition


Weather Definition


00:00 3.2 -0.2 78 34 14 24.1 100.29     LegendNANA
01:00 3.0 -0.1 80 32 7 24.1 100.32     Mostly Cloudy
02:00 2.8 -0.2 81 3 6 24.1 100.34     LegendNANA
03:00 2.5 0.1 84 3 9 24.1 100.33     LegendNANA
04:00 2.9 0.0 81 36 10 24.1 100.37     Cloudy
05:00 2.4 -0.3 83 1 13 24.1 100.40     LegendNANA
06:00 2.4 -0.8 80 5 9 24.1 100.40     LegendNANA
07:00 2.2 -1.1 79 6 9 24.1 100.48     Mostly Cloudy
08:00 2.8 -1.7 72 4 14 24.1 100.55     LegendNANA
09:00 3.6 -0.9 73 2 17 24.1 100.57     LegendNANA
10:00 4.8 -0.6 68 7 12 24.1 100.52     Cloudy
11:00 5.8 -0.1 66 6 14 24.1 100.52     LegendNANA
12:00 5.5 0.4 69 7 18 24.1 100.48     LegendNANA
13:00 6.2 0.3 66 8 16 24.1 100.42     Mostly Cloudy
14:00 5.9 0.0 66 10 15 24.1 100.39     LegendNANA
15:00 6.1 0.4 67 6 16 24.1 100.35     LegendNANA
16:00 5.7 0.1 67 8 15 24.1 100.32     Cloudy
17:00 5.6 2.0 78 8 19 24.1 100.28     Rain
18:00 6.3 1.0 69 8 18 24.1 100.30     LegendNANA
19:00 6.2 -0.5 62 9 19 24.1 100.24     Mostly Cloudy
20:00 5.3 -2.4 57 6 15 24.1 100.23     LegendNANA
21:00 5.1 -2.9 56 6 18 24.1 100.18     LegendNANA
22:00 4.9 -3.4 55 6 17 24.1 100.15     Mostly Cloudy
23:00 4.7 -3.5 55 5 17 24.1 100.07     LegendNANA

Notes on Data Quality.

Legend

  • E = Estimated
  • M = Missing
  • NA = Not Available*
  • [empty] = Indicates an unobserved value
Date modified: